Regional Weather Roundup
Issued by NWS

Home | Current Version | Previous Version | Graphics & Text | Print | Product List | Glossary On
Versions: 1 2 3 4 5 6 7 8 9 10 11 12 13 14 15 16 17 18 19 20 21 22 23 24 25 26 27 28 29 30 31 32 33 34 35 36 37 38 39 40 41 42 43 44 45 46 47 48 49 50
000
ASUS45 KTFX 021604
RWRMT
MONTANA HOURLY WEATHER ROUNDUP
NATIONAL WEATHER SERVICE GREAT FALLS MT
1004 AM MDT TUE SEP 2 2014

NOTE: "FAIR" INDICATES FEW OR NO CLOUDS BELOW 12000 FEET WITH NO
SIGNIFICANT WEATHER AND/OR OBSTRUCTIONS TO VISIBILITY.

* THESE STATIONS ARE NOT UNDER NWS QUALITY CONTROL. THEY DO NOT
   REPORT WEATHER SUCH AS PRECIPITATION OR FOG.

MTZ001>007-043-021700-
WEST OF THE DIVIDE
CITY           SKY/WX    TMP DP  RH WIND       PRES   REMARKS
KALISPELL      PTSUNNY   59  45  60 S8        29.87F
MISSOULA       SUNNY     55  43  64 E3        29.95F
BUTTE          SUNNY     52  37  57 CALM      30.02F
MULLAN PASS    PTCLDY    50  37  61 VRB5      29.96F
* LINCOLN      N/A       46  38  74 N2         N/A
* LOOKOUT PASS N/A       49  42  77 SE3        N/A
* POLSON       N/A       58  46  65 S2         N/A
* RONAN APT    PTCLDY    59  45  60 SW5        N/A
* SEELEY LAKE  N/A       50  41  71 NW1        N/A
* THOMP F APT  PTSUNNY   54  35  49 E4G9       N/A
$$

MTZ008-052>055-021700-
SOUTHWEST MONTANA
CITY           SKY/WX    TMP DP  RH WIND       PRES   REMARKS
BOZEMAN        PTCLDY    57  43  60 CALM      29.99F
DILLON         PTCLDY    57  39  51 SW9       30.01F
W YELLOWSTONE  SUNNY     54  36  51 SE5       30.12S
* THREE FORKS  PTCLDY    55  36  49 N/A        N/A
* BOULDER HILL N/A       52  34  50 S8         N/A
* MONIDA PASS  N/A       51  35  54 SE14G19    N/A
* RAYNOLDS PAS N/A       52  35  52 S16G24     N/A
* WHITEHALL    N/A       56  44  64 SW6        N/A
* WISE RIVER   N/A       42  36  79 NW3        N/A
$$

MTZ009>010-012-014-046-048-049-054-021700-
EAST SLOPES AND CENTRAL MONTANA
CITY           SKY/WX    TMP DP  RH WIND       PRES   REMARKS
CUT BANK       CLOUDY    61  39  44 SW20G28   29.84F
GREAT FALLS    CLOUDY    61  41  48 S6        29.88F
HELENA         PTSUNNY   57  43  60 NW5       29.95F
MALMSTROM AFB  CLOUDY    59  43  56 SW10      29.90S
* CONRAD       CLOUDY    61  43  52 S10        N/A
* EAST GLACIER N/A       54  38  55 W9         N/A
* MONARCH      N/A       55  31  40 SW14       N/A
* PENDROY      N/A       57  40  53 NW3        N/A
* ROGERS PASS  N/A       49  37  63 W4G11      N/A
* SAINT MARY   N/A       55  39  55 S7G16      N/A
* SWEET GRASS  N/A       60  38  44 W15G21     N/A
$$

MTZ011-013-016-021-035-040-045-047-050-051-021700-
NORTH CENTRAL MONTANA
CITY           SKY/WX    TMP DP  RH WIND       PRES   REMARKS
HAVRE          CLOUDY    63  39  41 SW13      29.83F
LEWISTOWN      CLOUDY    59  43  56 VRB5      29.92F
* CHESTER      N/A       54  41  62 N/A        N/A
* DENTON       N/A       61  41  48 S4         N/A
* GEYSER       N/A       59  42  53 W8         N/A
* JUDITH GAP   N/A       58  43  58 SW11       N/A
* LOMA         N/A       59  42  53 SW3        N/A
$$

MTZ017>020-022>027-061-062-021700-
NORTHEAST MONTANA
CITY           SKY/WX    TMP DP  RH WIND       PRES   REMARKS
GLASGOW        PTCLDY    63  45  52 NW12      29.82S
GLENDIVE       SUNNY     68  46  45 W14       29.85F
JORDAN         PTCLDY    66  43  43 W12       29.86S
SIDNEY         PTCLDY    68  45  44 W15G20    29.82S
WOLF POINT     SUNNY     64  46  52 W12       29.82R
* BEAVER HILL  N/A       62  45  54 SW15       N/A
* CIRCLE       N/A       64  47  54 W9G15      N/A
* LINDSAY DVD  N/A       65  41  42 W13        N/A
* NAVAJO       N/A       61  45  56 W9         N/A
$$

MTZ028>042-056>058-021700-
SOUTHCENTRAL AND SOUTHEAST MONTANA
CITY           SKY/WX    TMP DP  RH WIND       PRES   REMARKS
BAKER          SUNNY     64  46  52 W10       29.89S
BILLINGS       PTCLDY    61  43  52 SW7       29.94S
LIVINGSTON     PTCLDY    63  41  45 NW8       29.96F
MILES CITY     PTCLDY    64  45  50 W3        29.89S
* LAUREL APT   PTCLDY    61  39  44 N/A        N/A
* ROUNDUP APT  PTSUNNY   57  41  55 S7         N/A
* ALZADA       N/A       71  45  39 SW8G13     N/A
* HYSHAM       N/A       61  42  50 W8         N/A
* LAME DEER    N/A       63  42  46 W4G11      N/A
* REED POINT   N/A       61  43  52 NE2        N/A
* ROSCOE HILL  N/A       60  31  33 E10G17     N/A
$$

REGIONAL REPORTS...DAKOTAS
CITY           SKY/WX    TMP DP  RH WIND       PRES   REMARKS
WILLISTON      PTCLDY    66  45  47 W18G24    29.78S
DICKINSON      PTCLDY    66  46  49 W13       29.83S
BEACH          N/A       64  46  52 W10       29.86S
CROSBY         SUNNY     64  48  56 W12G17    29.75S
TIOGA          SUNNY     66  48  52 W17       29.79S
WATFORD CITY   SUNNY     66  45  47 W16G22    29.77S
BISMARCK       PTCLDY    66  52  61 W6        29.82F
GRAND FORKS    LGT RAIN  59  54  84 S3        29.79S
FARGO          PTCLDY    70  55  59 SW9       29.81F
BUFFALO SD     PTSUNNY   66  46  49 W18       29.83F
RAPID CITY     SUNNY     72  46  40 S13       29.94F
$$

REGIONAL REPORTS...WYOMING/IDAHO/WASHINGTON
CITY           SKY/WX    TMP DP  RH WIND       PRES   REMARKS
GILLETTE       PTCLDY    66  46  49 SW14      29.96F
SHERIDAN       PTCLDY    63  46  54 VRB5      29.95R
CODY           SUNNY    N/A N/A N/A N/A        N/A
YELLOWSTONE LA SUNNY     52  37  57 S5        30.20S
SALMON         SUNNY     52  43  72 CALM      30.01F
MULLAN PASS    PTCLDY    50  37  61 VRB5      29.96S
SAND POINT     CLOUDY    59  48  67 CALM      29.85F
SPOKANE        PTSUNNY   61  43  52 S9        29.85F

$$




USA.gov is the U.S. government's official web portal to all federal, state and local government web resources and services.